Simultaneous Nadir Overpasses (SNOs) Predictions

Prediction of SNOs near equator between AQUA and NPP Satellite Orbit:

Table of predicted SNOs near equator for the next 14.0 days since TLE Epoch: 6/27/2015
Index Date (AQUA) Time (AQUA) AQUA Lat,Lon Date (NPP) Time (NPP) NPP Lat,Lon Distance(km) Time Diff (sec)
1 06/28/2015 05:31:52 29.95, 116.29 06/28/2015 05:21:52 30.43, 116.76 69.68 600
2 06/28/2015 06:21:15 -29.98, -76.06 06/28/2015 06:12:26 -30.02, -75.80 25.78 529
3 06/28/2015 07:09:44 26.28, 92.50 06/28/2015 07:02:11 26.28, 92.50 0.21 453
4 06/28/2015 07:51:11 2.40, -93.46 06/28/2015 07:44:43 2.40, -93.46 0.19 388
5 06/28/2015 08:38:18 -11.09, 76.02 06/28/2015 08:33:04 -11.13, 75.80 24.59 314
6 06/28/2015 09:26:26 15.57,-115.33 06/28/2015 09:22:27 15.67,-115.81 52.78 239
7 06/28/2015 10:14:40 -20.19, 53.34 06/28/2015 10:11:57 -20.33, 52.60 79.25 163
8 06/30/2015 21:48:18 29.96,-127.83 06/30/2015 21:38:39 30.04,-127.37 45.14 579
9 06/30/2015 22:37:41 -29.98, 39.82 06/30/2015 22:29:20 -30.04, 39.96 14.66 501
10 06/30/2015 23:23:21 16.10,-149.22 06/30/2015 23:16:11 16.10,-149.22 0.33 430
11 07/01/2015 00:06:03 8.07, 23.64 07/01/2015 00:00:00 8.08, 23.58 6.11 363
12 07/01/2015 00:54:17 -12.71,-167.73 07/01/2015 00:49:30 -12.75,-168.06 35.38 287
13 07/01/2015 01:42:25 17.19, 0.92 07/01/2015 01:38:53 17.29, 0.34 62.91 212
14 07/01/2015 02:30:39 -21.81, 169.61 07/01/2015 02:28:23 -21.95, 168.76 88.58 136
15 07/03/2015 14:04:44 29.99, -11.94 07/03/2015 13:55:33 30.07, -11.61 33.75 551
16 07/03/2015 14:54:05 -29.89, 155.74 07/03/2015 14:46:11 -29.89, 155.77 3.46 474
17 07/03/2015 15:36:46 5.20, -30.96 07/03/2015 15:29:59 5.19, -30.95 0.39 407
18 07/03/2015 16:22:01 9.73, 139.88 07/03/2015 16:16:25 9.76, 139.73 17.14 336
19 07/03/2015 17:10:17 -14.25, -51.50 07/03/2015 17:05:56 -14.37, -51.91 46.00 261
20 07/03/2015 17:58:23 18.85, 117.19 07/03/2015 17:55:18 18.97, 116.51 72.78 185
21 07/03/2015 18:46:39 -23.35, -74.14 07/03/2015 18:44:49 -23.56, -75.06 97.61 110
22 07/06/2015 05:31:38 -30.00, -63.68 07/06/2015 05:21:38 -30.14, -63.15 52.85 600
23 07/06/2015 06:21:08 29.97, 103.95 07/06/2015 06:12:25 30.04, 104.17 22.42 523
24 07/06/2015 07:08:30 -22.73, -86.59 </
